Time,TemperatureF,DewpointF,PressureIn,WindDirection,WindDirectionDegrees,WindSpeedMPH,WindSpeedGustMPH,Humidity,HourlyPrecipIn,Conditions,Clouds,dailyrainin,SolarRadiationWatts/m^2,SoftwareType,DateUTC
2013-03-10 00:00:00,66.4,53.8,30.16,ENE,60,3.0,5.0,64,0.00,,,0.00,0.0,meteohub,2013-03-10 05:00:00,
2013-03-10 00:01:00,66.4,53.8,30.16,East,96,2.0,4.0,64,0.00,,,0.00,0.0,meteohub,2013-03-10 05:01:00,
2013-03-10 00:06:00,66.2,54.1,30.16,ENE,59,2.0,5.0,65,0.00,,,0.00,0.0,meteohub,2013-03-10 05:06:00,
2013-03-10 00:11:00,66.4,54.3,30.15,ENE,67,2.0,5.0,65,0.00,,,0.00,0.0,meteohub,2013-03-10 05:11:00,
2013-03-10 00:16:00,66.4,54.3,30.15,NE,55,3.0,5.0,65,0.00,,,0.00,0.0,meteohub,2013-03-10 05:16:00,
2013-03-10 00:21:00,66.2,54.5,30.14,ENE,59,2.0,7.0,66,0.00,,,0.00,0.0,meteohub,2013-03-10 05:21:00,
2013-03-10 00:26:00,66.4,54.3,30.15,ENE,57,4.0,7.0,65,0.00,,,0.00,0.0,meteohub,2013-03-10 05:26:00,
2013-03-10 00:31:00,66.6,54.5,30.15,NE,52,3.0,7.0,65,0.00,,,0.00,0.0,meteohub,2013-03-10 05:31:00,
2013-03-10 00:36:00,66.7,54.1,30.15,East,81,7.0,7.0,64,0.00,,,0.00,0.0,meteohub,2013-03-10 05:36:00,
2013-03-10 00:41:00,66.7,54.7,30.14,NE,42,3.0,7.0,65,0.00,,,0.00,0.0,meteohub,2013-03-10 05:41:00,
2013-03-10 00:46:00,66.7,55.0,30.14,East,90,1.0,7.0,66,0.00,,,0.00,0.0,meteohub,2013-03-10 05:46:00,
2013-03-10 00:51:00,66.9,55.2,30.14,ESE,120,0.0,7.0,66,0.00,,,0.00,0.0,meteohub,2013-03-10 05:51:00,
2013-03-10 00:56:00,66.9,55.6,30.15,ESE,104,0.0,7.0,67,0.00,,,0.00,0.0,meteohub,2013-03-10 05:56:00,
2013-03-10 01:01:00,66.7,55.4,30.16,ESE,104,0.0,5.0,67,0.00,,,0.00,0.0,meteohub,2013-03-10 06:01:00,
2013-03-10 01:06:00,66.6,55.6,30.15,ESE,103,2.0,3.0,68,0.00,,,0.00,0.0,meteohub,2013-03-10 06:06:00,
2013-03-10 01:11:00,66.0,55.6,30.14,East,88,1.0,3.0,69,0.00,,,0.00,0.0,meteohub,2013-03-10 06:11:00,
2013-03-10 01:16:00,66.0,55.2,30.13,East,84,3.0,5.0,68,0.00,,,0.00,0.0,meteohub,2013-03-10 06:16:00,
2013-03-10 01:21:00,66.0,55.6,30.12,ENE,62,2.0,6.0,69,0.00,,,0.00,0.0,meteohub,2013-03-10 06:21:00,
2013-03-10 01:26:00,66.2,55.8,30.12,ENE,78,2.0,6.0,69,0.00,,,0.00,0.0,meteohub,2013-03-10 06:26:00,
2013-03-10 01:31:00,66.6,55.6,30.12,ENE,63,2.0,7.0,68,0.00,,,0.00,0.0,meteohub,2013-03-10 06:31:00,
2013-03-10 01:36:00,66.7,55.4,30.13,ESE,102,4.0,10.0,67,0.00,,,0.00,0.0,meteohub,2013-03-10 06:36:00,
2013-03-10 01:41:00,67.1,55.4,30.13,East,97,2.0,10.0,66,0.00,,,0.00,0.0,meteohub,2013-03-10 06:41:00,
2013-03-10 01:46:00,67.1,55.4,30.12,ENE,71,5.0,10.0,66,0.00,,,0.00,0.0,meteohub,2013-03-10 06:46:00,
2013-03-10 01:51:00,66.9,55.2,30.12,ENE,62,5.0,9.0,66,0.00,,,0.00,0.0,meteohub,2013-03-10 06:51:00,
2013-03-10 01:56:00,66.9,54.9,30.12,ENE,78,4.0,9.0,65,0.00,,,0.00,0.0,meteohub,2013-03-10 06:56:00,
2013-03-10 03:01:00,66.7,54.7,30.10,ENE,67,7.0,-999.0,65,-99.99,,,0.00,0.0,meteohub,2013-03-10 07:01:00,
2013-03-10 03:06:00,66.6,54.0,30.11,ENE,76,4.0,-999.0,64,-99.99,,,0.00,0.0,meteohub,2013-03-10 07:06:00,
2013-03-10 03:11:00,66.6,54.0,30.10,ENE,69,3.0,-999.0,64,-99.99,,,0.00,0.0,meteohub,2013-03-10 07:11:00,
2013-03-10 03:16:00,66.4,53.4,30.11,East,88,1.0,-999.0,63,-99.99,,,0.00,0.0,meteohub,2013-03-10 07:16:00,
2013-03-10 03:21:00,66.4,53.4,30.10,East,81,6.0,-999.0,63,-99.99,,,0.00,0.0,meteohub,2013-03-10 07:21:00,
2013-03-10 03:26:00,66.0,53.1,30.10,ENE,74,2.0,-999.0,63,-99.99,,,0.00,0.0,meteohub,2013-03-10 07:26:00,
2013-03-10 03:31:00,65.8,53.2,30.09,East,81,2.0,-999.0,64,-99.99,,,0.00,0.0,meteohub,2013-03-10 07:31:00,
2013-03-10 03:36:00,65.8,53.2,30.09,ENE,71,1.0,-999.0,64,-99.99,,,0.00,0.0,meteohub,2013-03-10 07:36:00,
2013-03-10 03:41:00,65.7,53.6,30.09,ENE,57,4.0,-999.0,65,-99.99,,,0.00,0.0,meteohub,2013-03-10 07:41:00,
2013-03-10 03:47:00,65.8,53.2,30.10,ENE,72,1.0,-999.0,64,-99.99,,,0.00,0.0,meteohub,2013-03-10 07:47:00,
2013-03-10 03:52:00,65.8,53.8,30.09,ENE,76,0.0,-999.0,65,-99.99,,,0.00,0.0,meteohub,2013-03-10 07:52:00,
2013-03-10 03:57:00,65.8,53.8,30.10,ENE,76,0.0,-999.0,65,-99.99,,,0.00,0.0,meteohub,2013-03-10 07:57:00,
2013-03-10 04:02:00,66.0,54.3,30.10,NNE,33,1.0,-999.0,66,-99.99,,,0.00,0.0,meteohub,2013-03-10 08:02:00,
2013-03-10 04:07:00,65.8,54.5,30.10,NNE,33,0.0,-999.0,67,-99.99,,,0.00,0.0,meteohub,2013-03-10 08:07:00,
2013-03-10 04:12:00,65.7,55.2,30.10,NNE,33,0.0,-999.0,69,-99.99,,,0.00,0.0,meteohub,2013-03-10 08:12:00,
2013-03-10 04:17:00,64.9,54.5,30.09,ENE,61,3.0,-999.0,69,-99.99,,,0.00,0.0,meteohub,2013-03-10 08:17:00,
2013-03-10 04:22:00,65.1,54.7,30.09,East,79,3.0,-999.0,69,-99.99,,,0.00,0.0,meteohub,2013-03-10 08:22:00,
2013-03-10 04:27:00,65.5,55.0,30.09,East,94,2.0,-999.0,69,-99.99,,,0.00,0.0,meteohub,2013-03-10 08:27:00,
2013-03-10 04:32:00,65.7,55.6,30.08,ENE,78,4.0,-999.0,70,-99.99,,,0.00,0.0,meteohub,2013-03-10 08:32:00,
2013-03-10 04:37:00,65.8,55.8,30.08,ENE,66,7.0,-999.0,70,-99.99,,,0.00,0.0,meteohub,2013-03-10 08:37:00,
2013-03-10 04:42:00,66.0,55.6,30.08,ENE,69,3.0,-999.0,69,-99.99,,,0.00,0.0,meteohub,2013-03-10 08:42:00,
2013-03-10 04:47:00,65.8,55.4,30.08,ESE,122,2.0,-999.0,69,-99.99,,,0.00,0.0,meteohub,2013-03-10 08:47:00,
2013-03-10 04:52:00,65.8,55.0,30.07,East,91,5.0,-999.0,68,-99.99,,,0.00,0.0,meteohub,2013-03-10 08:52:00,
2013-03-10 04:57:00,65.8,55.0,30.07,East,98,3.0,-999.0,68,-99.99,,,0.00,0.0,meteohub,2013-03-10 08:57:00,
2013-03-10 05:02:00,66.0,54.7,30.08,East,92,6.0,-999.0,67,-99.99,,,0.00,0.0,meteohub,2013-03-10 09:02:00,
2013-03-10 05:07:00,66.0,54.7,30.09,NE,53,1.0,-999.0,67,-99.99,,,0.00,0.0,meteohub,2013-03-10 09:07:00,
2013-03-10 05:12:00,66.0,54.3,30.10,NNE,29,2.0,-999.0,66,-99.99,,,0.00,0.0,meteohub,2013-03-10 09:12:00,
2013-03-10 05:17:00,66.0,54.7,30.11,NNE,21,4.0,-999.0,67,-99.99,,,0.00,0.0,meteohub,2013-03-10 09:17:00,
2013-03-10 05:22:00,65.8,54.5,30.12,NE,38,3.0,-999.0,67,-99.99,,,0.00,0.0,meteohub,2013-03-10 09:22:00,
2013-03-10 05:27:00,65.5,54.3,30.10,East,82,3.0,-999.0,67,-99.99,,,0.00,0.0,meteohub,2013-03-10 09:27:00,
2013-03-10 05:32:00,65.1,54.3,30.10,ENE,67,3.0,-999.0,68,-99.99,,,0.00,0.0,meteohub,2013-03-10 09:32:00,
2013-03-10 05:37:00,65.1,54.0,30.10,ENE,63,2.0,-999.0,67,-99.99,,,0.00,0.0,meteohub,2013-03-10 09:37:00,
2013-03-10 05:42:00,65.1,54.0,30.11,ENE,69,2.0,-999.0,67,-99.99,,,0.00,0.0,meteohub,2013-03-10 09:42:00,
2013-03-10 05:47:00,65.3,54.1,30.10,ENE,78,1.0,-999.0,67,-99.99,,,0.00,0.0,meteohub,2013-03-10 09:47:00,
2013-03-10 05:52:00,65.5,54.3,30.11,ENE,72,0.0,-999.0,67,-99.99,,,0.00,0.0,meteohub,2013-03-10 09:52:00,
2013-03-10 05:57:00,65.7,54.0,30.11,ENE,70,2.0,-999.0,66,-99.99,,,0.00,0.0,meteohub,2013-03-10 09:57:00,
2013-03-10 06:02:00,65.7,54.0,30.10,East,85,0.0,-999.0,66,-99.99,,,0.00,0.0,meteohub,2013-03-10 10:02:00,
2013-03-10 06:07:00,65.8,54.1,30.10,East,96,3.0,-999.0,66,-99.99,,,0.00,0.0,meteohub,2013-03-10 10:07:00,
2013-03-10 06:12:00,65.7,54.0,30.10,ENE,68,4.0,-999.0,66,-99.99,,,0.00,0.0,meteohub,2013-03-10 10:12:00,
2013-03-10 06:17:00,65.7,54.0,30.10,ENE,60,3.0,-999.0,66,-99.99,,,0.00,0.0,meteohub,2013-03-10 10:17:00,
2013-03-10 06:22:00,65.7,54.0,30.10,ENE,78,2.0,-999.0,66,-99.99,,,0.00,0.0,meteohub,2013-03-10 10:22:00,
2013-03-10 06:27:00,65.7,54.0,30.10,ENE,63,4.0,-999.0,66,-99.99,,,0.00,0.0,meteohub,2013-03-10 10:27:00,
2013-03-10 06:32:00,65.7,54.0,30.10,East,87,1.0,-999.0,66,-99.99,,,0.00,0.0,meteohub,2013-03-10 10:32:00,
2013-03-10 06:37:00,65.8,54.1,30.10,NE,51,3.0,-999.0,66,-99.99,,,0.00,0.0,meteohub,2013-03-10 10:37:00,
2013-03-10 06:42:00,66.0,54.0,30.10,ENE,60,3.0,-999.0,65,-99.99,,,0.00,0.0,meteohub,2013-03-10 10:42:00,
2013-03-10 06:47:00,66.0,54.0,30.10,East,89,1.0,-999.0,65,-99.99,,,0.00,0.0,meteohub,2013-03-10 10:47:00,
2013-03-10 06:52:00,66.4,54.3,30.10,ENE,62,3.0,-999.0,65,-99.99,,,0.00,0.0,meteohub,2013-03-10 10:52:00,
2013-03-10 06:57:00,66.4,53.8,30.10,East,90,7.0,-999.0,64,-99.99,,,0.00,0.0,meteohub,2013-03-10 10:57:00,
2013-03-10 07:02:00,66.6,54.0,30.10,East,99,5.0,-999.0,64,-99.99,,,0.00,0.0,meteohub,2013-03-10 11:02:00,
2013-03-10 07:07:00,66.7,54.1,30.10,East,97,6.0,-999.0,64,-99.99,,,0.00,0.0,meteohub,2013-03-10 11:07:00,
2013-03-10 07:12:00,66.7,53.8,30.11,East,99,3.0,-999.0,63,-99.99,,,0.00,0.0,meteohub,2013-03-10 11:12:00,
2013-03-10 07:17:00,66.7,53.8,30.11,East,96,3.0,8.0,63,-99.99,,,0.00,0.0,meteohub,2013-03-10 11:17:00,
2013-03-10 07:22:00,66.6,53.6,30.11,East,96,6.0,8.0,63,-99.99,,,0.00,0.0,meteohub,2013-03-10 11:22:00,
2013-03-10 07:27:00,66.6,54.0,30.11,East,88,2.0,7.0,64,-99.99,,,0.00,0.0,meteohub,2013-03-10 11:27:00,
2013-03-10 07:32:00,66.6,54.0,30.10,ESE,102,4.0,7.0,64,-99.99,,,0.00,0.0,meteohub,2013-03-10 11:32:00,
2013-03-10 07:37:00,66.7,54.1,30.11,East,98,7.0,8.0,64,-99.99,,,0.00,0.0,meteohub,2013-03-10 11:37:00,
2013-03-10 07:42:00,66.7,54.1,30.11,East,89,5.0,8.0,64,-99.99,,,0.00,7.0,meteohub,2013-03-10 11:42:00,
2013-03-10 07:47:00,66.7,54.1,30.11,East,84,5.0,8.0,64,-99.99,,,0.00,12.0,meteohub,2013-03-10 11:47:00,
2013-03-10 07:52:00,66.9,54.3,30.12,East,79,2.0,8.0,64,-99.99,,,0.00,14.0,meteohub,2013-03-10 11:52:00,
2013-03-10 07:57:00,66.7,54.1,30.12,East,91,1.0,7.0,64,-99.99,,,0.00,19.0,meteohub,2013-03-10 11:57:00,
2013-03-10 08:02:00,66.7,53.8,30.12,ENE,61,5.0,7.0,63,0.00,,,0.00,26.0,meteohub,2013-03-10 12:02:00,
2013-03-10 08:07:00,66.9,53.4,30.12,East,84,3.0,9.0,62,0.00,,,0.00,42.0,meteohub,2013-03-10 12:07:00,
2013-03-10 08:12:00,67.1,53.6,30.12,NE,51,2.0,9.0,62,0.00,,,0.00,39.0,meteohub,2013-03-10 12:12:00,
2013-03-10 08:17:00,67.3,53.8,30.12,East,83,1.0,9.0,62,0.00,,,0.00,54.0,meteohub,2013-03-10 12:17:00,
2013-03-10 08:22:00,67.5,54.5,30.13,ENE,78,2.0,6.0,63,0.00,,,0.00,67.0,meteohub,2013-03-10 12:22:00,
2013-03-10 08:27:00,67.6,54.1,30.13,East,94,1.0,6.0,62,0.00,,,0.00,97.0,meteohub,2013-03-10 12:27:00,
2013-03-10 08:32:00,67.6,54.1,30.13,ENE,71,1.0,5.0,62,0.00,,,0.00,76.0,meteohub,2013-03-10 12:32:00,
2013-03-10 08:37:00,67.8,54.3,30.13,East,96,5.0,5.0,62,0.00,,,0.00,95.0,meteohub,2013-03-10 12:37:00,
2013-03-10 08:42:00,68.2,55.0,30.13,East,98,6.0,9.0,63,0.00,,,0.00,86.0,meteohub,2013-03-10 12:42:00,
2013-03-10 08:47:00,68.4,54.9,30.13,ESE,107,5.0,9.0,62,0.00,,,0.00,63.0,meteohub,2013-03-10 12:47:00,
2013-03-10 08:52:00,68.4,54.9,30.13,East,96,8.0,9.0,62,0.00,,,0.00,51.0,meteohub,2013-03-10 12:52:00,
2013-03-10 08:57:00,68.4,54.9,30.13,ENE,71,7.0,11.0,62,0.00,,,0.00,46.0,meteohub,2013-03-10 12:57:00,
2013-03-10 09:02:00,68.4,54.9,30.13,East,92,2.0,12.0,62,0.00,,,0.00,123.0,meteohub,2013-03-10 13:02:00,
2013-03-10 09:07:00,68.7,55.2,30.14,East,92,7.0,12.0,62,0.00,,,0.00,93.0,meteohub,2013-03-10 13:07:00,
2013-03-10 09:12:00,68.9,55.4,30.14,ESE,107,9.0,11.0,62,0.00,,,0.00,83.0,meteohub,2013-03-10 13:12:00,
2013-03-10 09:17:00,69.1,55.0,30.14,East,101,9.0,11.0,61,0.00,,,0.00,341.0,meteohub,2013-03-10 13:17:00,
2013-03-10 09:22:00,70.2,55.6,30.14,ENE,69,9.0,11.0,60,0.00,,,0.00,413.0,meteohub,2013-03-10 13:22:00,
2013-03-10 09:27:00,70.2,55.2,30.14,ENE,65,4.0,14.0,59,0.00,,,0.00,130.0,meteohub,2013-03-10 13:27:00,
2013-03-10 09:32:00,69.6,55.0,30.14,ESE,109,9.0,14.0,60,0.00,,,0.00,156.0,meteohub,2013-03-10 13:32:00,
2013-03-10 09:37:00,69.4,55.4,30.14,East,84,1.0,14.0,61,0.00,,,0.00,160.0,meteohub,2013-03-10 13:37:00,
2013-03-10 09:42:00,69.8,56.1,30.14,East,91,6.0,12.0,62,0.00,,,0.00,299.0,meteohub,2013-03-10 13:42:00,
2013-03-10 09:47:00,70.9,56.3,30.14,East,94,2.0,11.0,60,0.00,,,0.00,538.0,meteohub,2013-03-10 13:47:00,
2013-03-10 09:52:00,70.5,55.9,30.13,East,84,6.0,10.0,60,0.00,,,0.00,202.0,meteohub,2013-03-10 13:52:00,
2013-03-10 09:57:00,70.3,54.9,30.14,ESE,105,8.0,13.0,58,0.00,,,0.00,241.0,meteohub,2013-03-10 13:57:00,
2013-03-10 10:02:00,71.1,55.9,30.14,NE,34,10.0,14.0,59,0.00,,,0.00,218.0,meteohub,2013-03-10 14:02:00,
2013-03-10 10:07:00,71.1,55.6,30.14,East,82,7.0,17.0,58,0.00,,,0.00,186.0,meteohub,2013-03-10 14:07:00,
2013-03-10 10:12:00,70.7,55.6,30.14,East,88,6.0,17.0,59,0.00,,,0.00,232.0,meteohub,2013-03-10 14:12:00,
2013-03-10 10:17:00,71.2,55.8,30.14,NE,44,5.0,17.0,58,0.00,,,0.00,570.0,meteohub,2013-03-10 14:17:00,
2013-03-10 10:22:00,71.8,55.8,30.15,East,101,9.0,16.0,57,0.00,,,0.00,543.0,meteohub,2013-03-10 14:22:00,
2013-03-10 10:27:00,72.1,56.1,30.15,East,81,8.0,16.0,57,0.00,,,0.00,563.0,meteohub,2013-03-10 14:27:00,
2013-03-10 10:32:00,72.1,56.1,30.15,East,98,10.0,16.0,57,0.00,,,0.00,650.0,meteohub,2013-03-10 14:32:00,
2013-03-10 10:37:00,72.1,55.0,30.14,ESE,122,9.0,15.0,55,0.00,,,0.00,656.0,meteohub,2013-03-10 14:37:00,
2013-03-10 10:42:00,72.9,55.8,30.14,East,80,9.0,17.0,55,0.00,,,0.00,696.0,meteohub,2013-03-10 14:42:00,
2013-03-10 10:47:00,72.9,55.8,30.15,ESE,110,12.0,17.0,55,0.00,,,0.00,710.0,meteohub,2013-03-10 14:47:00,